Terminal Aerodrome Forecast
Issued by NWS

Home | Current Version | Previous Version | Text Only | Print | Product List | Glossary On
Versions: 1 2 3 4 5 6 7 8 9 10 11 12 13 14 15 16 17 18 19 20 21
000
FTUS45 KSLC 231730
TAF36U
TAF
K36U 231730Z 2318/2418 32009G15KT P6SM SCT150
     FM240200 VRB04KT P6SM SCT120=

USA.gov is the U.S. government's official web portal to all federal, state and local government web resources and services.